Location: Newark
(58.9986°N, 38.5006°E)
Time: 12:15:16
(UTC+00:00)

N. Korean satellite - Pass Details

Date: 16 December 2019
Orbit: 454 x 508 km, 97.2° (Epoch: 19 January)

Event Time Altitude Azimuth Distance (km) Brightness Sun altitude
Rises 02:23:01 0° 24° (NNE) 2,547 10.5 -27.3°
Reaches altitude 10° 02:25:39 10° 45° (NE) 1,650 9.8 -26.9°
Maximum altitude 02:28:04 17° 89° (E) 1,252 9.5 -26.6°
Drops below altitude 10° 02:30:27 10° 132° (SE) 1,622 9.8 -26.3°
Sets 02:33:01 0° 153° (SSE) 2,483 10.5 -26.0°
